Wind_Speed
15 14 12 13 14 12 12 12 13 16 17 16 14 15 16 17 15 14 13 12 11 10 12 11 10 10 11 13 15 15 17 18 16 16 16 14 12 13 16 20 22 24 25 21 20 20 20 19 17 16 16 17 18 21 24 27 24 17 19 23 24 25 24 23 23 29 34 35 36 36 35 33 27 23 23 23 23 21 21 21 21 22 23 24 24
18 15 13 13 15 12 13 16 16 16 16 17 15 13 14 14 14 12 9 8 10 11 14 15 15 14 13 14 16 17 18 18 17 18 17 16 15 16 20 23 23 23 22 19 20 20 19 18 17 16 17 18 18 22 24 29 25 16 19 27 27 27 27 28 30 33 35 35 35 35 36 31 25 24 23 23 22 21 21 20 21 22 23 23 23
17 13 13 14 16 13 14 16 16 15 14 14 14 13 14 15 15 13 9 8 8 9 12 16 17 15 15 17 18 17 18 22 22 20 18 17 18 20 23 25 22 18 16 16 18 18 18 17 17 18 19 18 18 22 24 28 22 15 23 30 31 32 29 28 29 31 32 33 33 35 34 27 24 24 23 23 22 21 21 21 22 23 22 22 22
16 11 13 15 16 14 14 16 15 13 12 12 12 14 15 16 17 15 11 8 4 5 8 14 16 15 15 16 18 19 22 26 24 19 18 19 20 21 22 20 16 13 12 15 17 16 17 17 19 19 21 19 19 22 22 23 21 20 27 30 33 31 26 25 26 28 29 31 32 32 28 24 23 23 23 23 22 21 21 22 22 22 22 22 22
14 10 13 14 13 14 15 16 15 14 13 11 11 13 16 17 17 16 12 7 3 6 9 13 16 16 14 16 18 18 19 18 17 17 18 20 20 19 17 14 10 10 11 14 15 15 17 18 19 21 22 21 20 21 21 21 23 26 28 28 29 25 24 26 26 28 29 31 32 28 25 23 23 23 23 22 21 21 21 22 22 22 22 21 20
15 11 12 12 11 13 15 16 15 16 15 12 10 12 16 18 18 18 14 9 5 5 11 13 15 16 15 18 21 21 19 14 14 16 17 18 18 17 15 12 9 8 11 13 15 16 17 18 20 22 22 21 21 21 21 22 24 26 25 27 26 26 29 30 29 30 30 31 30 26 24 24 23 22 22 21 21 21 22 22 21 21 20 20 19
16 15 13 13 13 14 16 16 17 18 18 16 14 13 18 19 19 19 16 13 10 7 11 13 15 17 18 21 23 24 21 18 18 17 17 19 17 14 12 8 6 10 13 15 16 15 17 18 19 20 20 20 21 21 22 22 24 25 24 27 30 34 36 33 32 30 30 29 27 25 24 23 22 21 20 21 21 22 22 21 21 20 19 20 19
15 16 15 15 16 16 16 16 19 21 21 21 19 14 18 21 20 19 16 15 13 11 12 15 17 16 14 12 13 13 12 15 18 15 15 16 12 10 9 5 8 15 16 16 16 15 17 18 18 19 20 21 22 22 21 22 24 24 25 28 33 35 35 33 31 29 29 27 24 24 22 22 21 20 20 20 22 22 21 20 20 19 19 19 20
14 15 16 17 17 17 18 17 19 23 24 25 21 14 15 20 19 18 16 15 14 14 15 19 21 19 14 9 9 12 13 15 14 10 11 12 9 12 11 10 14 17 16 15 15 15 16 17 19 20 21 22 22 21 21 23 26 26 27 29 32 33 33 31 29 29 28 25 22 22 21 20 20 19 19 21 22 21 20 19 19 19 19 20 21
16 15 17 18 19 19 20 20 19 21 25 26 23 15 13 16 17 17 16 14 14 14 16 21 24 25 22 17 16 19 21 22 18 11 11 11 9 12 11 13 17 17 15 14 14 14 16 18 19 21 22 23 22 21 20 24 28 29 29 30 31 32 31 29 28 28 26 22 20 20 20 20 19 19 20 21 21 21 20 19 20 20 21 22 23
18 17 17 19 21 21 22 21 19 19 23 25 23 18 15 15 16 16 16 16 17 16 18 20 21 22 21 19 19 21 21 19 16 11 11 11 10 10 9 13 16 16 14 12 13 14 16 18 20 22 23 23 23 22 22 24 28 29 28 29 29 30 29 28 28 26 23 20 19 18 19 20 19 20 21 21 21 20 20 20 21 21 23 24 24
20 19 18 19 20 21 20 20 20 19 21 23 22 19 19 19 18 17 16 18 20 19 22 19 14 15 16 18 19 18 14 7 7 8 10 10 10 10 10 12 14 14 13 12 13 15 17 19 22 23 24 24 24 22 23 25 27 28 28 28 28 29 29 28 27 24 21 19 18 19 20 21 21 21 21 21 21 21 21 22 22 23 25 25 23
20 20 19 19 20 20 19 19 19 20 21 22 22 21 21 22 22 20 18 19 20 20 24 23 17 16 16 16 16 13 11 6 5 7 9 8 8 10 11 11 13 13 12 13 14 16 19 22 24 24 24 24 23 22 23 25 26 28 29 29 29 29 29 28 26 22 19 18 18 19 21 21 21 21 22 22 22 22 23 23 24 25 25 24 21
17 20 21 21 21 21 20 19 19 19 21 22 23 23 23 24 24 24 22 20 19 20 24 27 25 19 15 12 11 10 8 8 6 6 7 7 8 9 10 12 13 14 14 14 14 17 21 24 24 23 23 23 22 22 25 26 27 29 29 29 30 30 30 27 23 20 19 19 19 20 21 21 21 21 22 22 23 23 24 24 25 26 25 22 18
10 14 17 20 22 22 22 20 20 19 20 21 23 24 24 25 25 26 25 24 22 21 23 27 26 20 15 12 11 11 9 9 8 7 6 5 8 9 9 11 12 14 14 14 16 19 22 23 23 22 22 22 22 25 27 26 27 29 29 30 31 31 28 24 21 20 20 20 20 20 21 21 21 21 22 23 24 24 25 25 25 25 23 19 15
8 10 11 14 17 20 21 21 21 21 21 21 21 23 23 23 24 25 25 26 25 21 19 20 20 16 12 11 11 11 10 10 9 10 10 7 10 12 11 10 10 12 13 16 19 20 22 23 22 20 20 20 23 26 26 25 28 30 30 31 32 29 24 22 21 21 20 20 19 20 20 21 21 22 23 24 24 24 25 25 25 23 19 15 13
9 10 10 10 11 13 15 17 19 21 22 22 21 21 21 21 22 23 23 25 25 20 16 15 12 10 10 11 12 12 11 9 10 14 14 12 13 14 12 10 9 12 15 19 19 20 22 22 21 20 19 22 24 25 25 26 29 31 31 32 30 25 22 22 21 21 20 19 20 20 20 20 21 22 23 23 23 24 24 24 22 19 14 12 12
8 11 12 11 11 10 10 12 15 17 20 22 22 22 21 21 21 21 22 23 23 17 14 13 9 9 11 13 14 13 12 10 12 13 12 13 15 14 12 10 11 14 17 18 19 21 22 21 20 20 21 23 25 25 25 28 30 31 31 30 26 23 22 22 21 21 21 20 21 21 21 21 21 22 22 22 23 22 22 20 17 13 12 13 13
5 8 11 13 12 11 11 12 13 14 16 18 20 21 21 21 21 21 22 22 22 16 14 12 9 11 12 14 15 13 12 12 13 12 11 12 14 15 13 11 11 15 18 17 19 21 21 20 19 19 21 24 26 25 26 29 30 31 29 26 24 23 22 21 21 21 21 21 22 22 21 21 21 22 22 21 21 19 18 15 12 12 13 15 16
3 4 7 11 12 12 12 13 14 14 14 15 16 18 19 20 20 20 21 21 19 16 14 11 10 12 12 12 13 14 16 15 12 12 12 11 13 16 15 12 11 14 17 17 19 21 19 19 19 18 19 23 25 26 27 29 30 28 26 24 23 22 22 21 21 21 22 23 23 22 21 20 21 20 19 18 16 15 12 11 11 14 16 18 17
4 2 3 6 8 10 12 13 14 14 14 15 14 15 16 17 18 18 18 17 16 17 16 12 11 12 12 12 13 13 15 14 12 11 11 11 15 18 16 13 13 14 15 17 19 20 19 19 19 17 19 23 25 25 28 29 28 26 24 23 22 22 22 21 21 22 23 23 22 21 20 19 18 17 15 13 12 11 10 11 13 17 18 18 18
5 3 2 3 5 7 9 12 14 13 14 15 14 13 14 14 15 16 15 12 11 16 17 14 13 14 14 15 16 11 9 10 10 11 12 13 16 18 16 13 13 14 14 17 19 19 18 19 19 19 21 23 24 26 28 28 26 24 23 23 23 22 21 20 21 22 22 22 20 19 17 15 14 12 11 10 10 10 11 13 16 18 19 19 19
7 5 3 2 3 5 7 10 12 12 13 15 15 14 14 12 12 13 14 12 11 14 16 16 16 17 16 16 17 11 7 7 8 11 13 13 14 16 15 13 13 13 14 18 19 18 18 19 20 21 22 24 25 26 26 25 24 24 24 23 22 20 20 20 20 20 19 18 17 15 13 12 12 11 11 11 11 12 13 15 17 18 19 19 20
10 7 4 3 2 2 5 7 9 11 13 15 17 17 16 13 11 12 13 14 13 14 16 16 17 18 17 15 14 10 7 7 9 12 14 13 13 15 15 14 13 13 15 18 18 18 19 20 21 22 23 24 26 25 24 24 24 24 23 21 18 17 18 18 17 17 16 15 14 13 13 13 12 12 13 12 12 13 15 16 17 18 19 20 22
13 10 7 5 4 2 2 4 6 8 11 15 18 18 17 16 15 13 13 15 15 16 17 16 16 17 17 15 12 9 9 10 12 14 15 15 15 15 15 14 14 13 15 17 17 18 19 21 22 22 23 24 24 23 23 23 24 23 20 16 15 15 16 16 15 15 15 15 15 15 15 14 14 14 14 14 14 15 16 17 19 20 21 22 23
16 13 10 8 7 6 4 3 4 4 7 11 15 18 18 19 18 16 15 17 18 17 17 14 13 13 14 13 10 8 10 12 14 15 15 15 14 13 12 13 14 13 17 17 17 19 20 21 22 23 23 23 23 22 23 22 21 18 15 13 13 14 14 16 16 16 17 17 17 17 16 16 16 15 15 15 15 16 17 18 20 21 22 22 22
17 16 14 11 10 8 7 4 3 3 4 6 10 15 19 20 21 21 19 18 15 14 14 11 10 11 11 10 9 10 13 13 12 12 14 14 12 10 10 13 13 15 18 17 17 19 19 21 23 23 22 22 22 22 20 18 16 14 12 11 12 14 16 17 18 18 19 18 18 17 17 17 17 17 16 16 16 17 18 19 20 21 21 21 21
18 17 16 13 11 10 9 7 4 3 3 4 6 11 15 17 20 23 21 16 12 9 8 8 9 9 9 8 9 11 12 13 11 10 11 12 11 10 12 14 13 17 19 16 17 18 19 22 23 22 21 21 20 18 16 13 12 12 12 12 13 16 17 18 19 20 20 20 19 19 19 18 18 18 17 17 17 17 18 18 19 19 19 19 19
18 17 16 14 12 11 10 8 6 4 2 1 4 9 12 16 20 21 20 16 13 9 7 9 10 6 6 9 10 10 11 12 12 10 10 11 10 9 12 13 13 18 17 15 17 18 20 22 22 22 21 18 15 13 13 12 12 13 13 13 15 17 18 19 20 21 22 21 21 20 20 19 19 18 18 17 17 17 18 18 18 17 17 17 17
20 19 17 16 14 12 11 9 7 5 2 1 3 6 10 15 19 19 19 18 16 13 10 12 14 10 9 11 14 14 14 13 13 12 10 9 8 8 10 12 14 16 14 14 17 19 21 22 21 19 16 12 12 14 15 16 16 16 16 16 17 18 19 19 20 21 22 22 22 21 20 19 19 18 17 17 17 17 17 17 17 17 16 16 17
21 20 19 18 16 13 11 9 8 6 3 3 3 4 7 12 16 17 18 19 18 16 15 15 17 19 18 17 17 17 14 12 13 11 10 9 9 10 11 12 13 12 12 14 17 20 21 20 16 13 12 14 17 20 21 22 22 22 23 22 21 22 22 22 23 23 23 22 22 22 21 20 19 18 17 17 17 17 17 17 17 16 16 16 17
23 22 21 20 17 15 12 9 7 5 4 3 4 6 7 8 11 14 15 17 18 18 18 16 17 19 19 19 18 15 12 13 12 8 7 9 12 14 13 12 11 10 12 14 17 19 18 14 11 12 17 21 24 26 27 29 29 29 30 28 27 27 27 27 28 27 26 25 23 22 21 20 20 19 19 18 17 17 17 17 16 15 15 15 16
25 24 23 22 20 17 13 10 7 4 3 3 3 4 6 5 6 8 9 12 16 17 17 16 15 15 16 17 17 15 11 12 13 7 9 12 14 14 12 10 10 10 12 14 16 15 11 10 13 18 22 26 29 31 31 32 33 34 35 34 33 31 30 30 30 29 29 29 28 26 24 22 21 20 19 19 18 17 17 16 16 15 14 14 16
25 26 25 23 21 19 15 11 8 4 3 3 3 2 2 4 5 6 6 8 11 14 15 15 15 16 16 16 17 16 12 12 11 11 11 10 11 10 9 7 8 9 11 13 12 8 9 15 20 23 26 29 32 33 33 33 34 34 34 34 34 35 34 34 33 32 32 32 31 30 28 27 25 24 23 21 19 18 17 16 16 15 15 16 18
26 26 26 25 23 21 18 13 9 6 3 3 3 2 1 3 5 6 7 7 8 13 16 15 15 17 17 16 16 15 12 10 12 13 8 7 6 6 5 4 6 7 9 10 5 9 15 21 25 27 28 29 30 30 31 31 33 33 33 33 33 34 34 36 36 36 35 35 35 35 34 32 31 29 27 26 24 22 20 19 18 17 16 17 20
25 27 27 26 24 22 20 16 11 8 4 4 4 3 2 3 2 2 4 6 7 9 11 12 13 15 16 17 17 13 11 13 14 9 6 5 5 5 5 4 4 6 6 3 9 16 20 24 27 27 27 27 27 27 28 29 31 32 32 32 32 31 32 33 35 36 36 35 37 38 39 39 37 34 32 31 29 27 25 23 22 21 20 19 20
25 26 27 26 25 24 21 18 14 10 6 4 4 5 4 3 5 3 3 4 5 7 7 9 12 14 16 18 17 14 12 13 9 5 4 4 4 4 5 4 2 2 3 11 18 22 24 25 25 26 25 25 26 27 29 30 31 31 31 31 32 32 32 33 34 36 36 36 37 39 41 42 42 41 39 37 35 32 30 28 26 25 24 22 21
25 25 26 26 25 24 23 20 17 13 9 6 5 5 5 7 9 8 6 5 6 8 8 8 10 11 11 12 13 11 9 6 4 4 5 5 4 4 4 3 3 7 14 21 25 27 27 26 25 24 25 26 27 27 28 29 29 29 30 30 31 33 34 33 34 36 36 37 37 38 40 40 41 43 43 42 40 38 35 33 32 31 29 27 24
25 25 25 26 25 25 24 22 20 16 13 9 7 6 7 8 9 9 8 7 6 6 7 8 9 9 9 9 8 6 6 6 6 6 6 6 6 6 7 7 11 17 23 26 28 27 26 25 25 25 25 25 25 26 26 27 27 27 27 28 30 32 33 34 34 34 34 35 36 36 37 36 36 38 40 41 40 40 39 39 39 38 37 35 32
24 24 24 25 25 25 24 23 21 19 16 13 9 7 7 8 9 9 9 8 7 6 8 10 10 9 10 10 9 8 8 8 8 8 8 8 9 10 11 14 19 24 27 28 27 26 25 24 24 24 24 24 24 24 24 24 24 24 24 26 27 29 31 31 32 33 33 33 33 33 34 34 34 34 35 37 38 39 39 40 40 40 40 39 38
22 24 24 24 24 25 24 23 22 21 18 15 12 9 8 8 9 9 9 8 7 8 8 9 9 9 10 10 9 9 8 9 10 10 10 11 11 13 17 21 26 29 29 28 26 24 24 23 23 23 23 23 23 22 22 22 22 22 23 24 26 27 29 29 30 31 31 30 30 30 31 33 35 35 34 34 36 37 38 38 39 38 38 38 38
19 22 23 23 23 24 24 24 23 22 20 18 15 12 9 8 8 10 10 9 8 8 9 10 10 9 9 9 9 10 10 11 12 13 13 13 14 19 23 27 29 30 28 26 25 24 24 23 23 23 23 23 22 22 22 22 21 22 23 24 25 26 27 27 27 27 27 27 28 29 29 29 32 34 33 33 34 34 35 36 36 36 36 36 36
16 19 21 23 23 24 24 24 23 22 21 19 17 14 11 9 8 9 10 10 9 9 9 10 10 11 10 11 11 12 14 15 16 16 15 16 20 25 28 29 29 29 27 25 25 24 24 24 23 23 23 23 23 23 23 22 22 22 23 23 23 24 24 24 24 25 25 25 25 28 28 28 30 32 30 29 31 31 33 33 33 34 34 35 36
13 16 19 21 23 23 24 24 24 23 22 21 19 16 14 11 9 9 10 10 10 10 9 10 10 11 11 12 13 15 16 17 17 18 19 22 26 29 31 31 30 28 26 25 24 24 24 24 23 24 24 24 24 23 23 23 23 22 22 23 23 24 23 23 23 23 24 24 24 26 28 29 30 31 29 27 28 29 30 30 31 32 32 33 34
11 13 15 18 20 22 23 23 23 23 22 21 20 18 16 13 10 9 10 10 10 10 10 10 10 11 12 14 15 16 17 18 18 20 23 27 30 32 32 30 29 27 26 25 24 24 24 24 24 24 25 25 24 24 23 23 23 22 22 22 22 22 22 23 23 23 24 25 26 27 29 31 31 30 28 28 28 28 29 30 32 32 31 31 32
8 10 12 15 17 20 22 23 23 23 22 21 21 19 18 15 13 10 10 10 10 10 10 10 11 12 13 15 17 17 18 19 21 24 28 31 33 32 31 29 27 26 26 26 25 25 25 25 25 25 25 25 25 24 24 23 23 23 22 22 22 22 22 23 24 24 25 25 26 27 27 27 27 27 27 28 29 28 28 30 31 31 30 30 31
6 8 10 12 14 16 19 21 22 22 22 22 21 20 19 17 14 12 10 10 10 10 10 11 12 12 13 15 17 18 19 22 25 29 31 33 34 32 30 28 26 26 26 26 26 26 25 25 26 26 25 25 24 24 24 24 23 23 22 22 22 22 21 21 22 24 24 23 24 24 23 22 23 25 26 27 28 27 27 29 29 28 29 29 30
4 6 8 9 11 14 16 19 21 21 21 21 21 20 20 18 16 14 12 10 10 10 11 11 12 13 14 16 18 20 22 26 29 32 33 34 34 31 29 27 27 26 26 26 26 26 26 26 26 26 25 25 24 24 24 24 24 24 23 22 20 19 19 19 20 21 21 21 21 21 21 21 21 22 24 25 26 25 24 26 27 27 27 27 27
4 4 6 7 9 11 13 16 18 20 20 20 21 20 20 19 17 15 13 12 11 11 11 12 13 14 16 17 20 22 25 29 31 33 35 35 32 30 28 27 27 27 26 26 26 26 26 26 26 26 26 25 25 25 25 25 25 25 24 23 21 19 19 19 20 19 20 20 20 19 20 21 22 22 21 22 22 22 21 23 24 25 26 26 26
6 5 5 6 6 8 11 13 15 18 19 19 20 20 19 19 18 16 14 13 12 12 13 13 15 16 18 20 22 25 27 30 32 34 35 33 31 29 28 27 27 26 26 26 26 26 25 26 25 25 25 25 25 25 25 25 25 26 25 24 23 21 20 20 19 20 20 20 20 20 21 22 22 22 20 20 19 18 18 21 23 24 25 25 24
8 6 6 5 5 6 8 10 12 15 17 18 18 19 19 18 18 17 15 14 13 13 14 15 17 18 20 22 24 27 29 31 32 34 33 31 29 28 27 27 26 26 26 26 25 25 25 24 24 24 24 24 25 25 26 26 26 27 27 26 24 22 21 20 19 20 20 20 20 19 20 21 20 20 19 19 17 16 17 20 22 23 25 24 24
Wind_Direction
184 192 204 200 196 200 210 214 221 218 206 200 208 210 208 210 203 202 215 232 241 241 242 240 243 248 245 250 254 253 258 263 285 304 303 305 305 300 301 306 309 309 304 300 298 299 303 301 297 297 303 308 307 310 312 316 309 301 325 335 334 331 326 319 311 313 321 326 331 336 336 333 327 324 325 325 323 319 315 314 313 312 312 311 310
185 195 204 198 192 198 213 214 214 211 206 209 215 217 212 207 194 186 199 234 250 247 248 250 250 250 245 247 246 246 256 267 282 296 297 301 304 307 310 311 310 305 300 296 298 300 302 298 296 298 306 307 305 310 317 323 312 292 319 331 329 327 320 314 312 316 322 327 331 332 331 329 325 323 325 325 323 319 317 315 314 313 313 312 311
180 193 202 196 196 200 200 197 195 197 202 210 218 221 214 207 195 185 197 227 247 253 256 257 253 249 247 245 246 254 269 277 280 288 301 308 307 310 311 311 310 304 296 298 304 303 301 299 295 298 306 304 302 311 323 330 320 303 320 327 324 320 318 316 315 317 322 327 329 328 327 325 322 324 326 325 322 319 317 316 316 315 313 312 310
180 190 196 194 201 199 185 181 184 192 202 211 221 221 216 209 198 194 207 220 236 281 273 256 250 244 246 253 259 268 275 278 276 280 301 310 310 312 310 309 310 300 294 306 309 305 302 300 297 299 303 299 299 309 322 330 322 318 323 323 319 317 320 321 319 319 321 326 328 328 327 324 323 325 325 324 321 318 318 318 318 316 314 313 312
195 194 192 195 202 198 187 185 188 194 203 208 222 226 218 212 204 206 215 220 237 320 295 252 242 237 241 260 264 263 262 268 274 282 300 309 313 316 311 305 301 297 306 313 310 307 304 302 303 303 302 299 303 309 316 319 315 317 321 319 317 322 329 326 323 322 323 327 328 327 327 325 323 324 323 322 319 317 319 320 319 316 315 315 315
213 208 198 202 206 204 198 196 197 202 208 203 218 235 226 217 211 217 226 231 233 301 288 253 239 243 251 262 263 262 265 272 284 297 309 316 320 320 314 304 294 304 318 317 312 309 307 307 308 307 307 307 310 312 310 309 310 315 320 319 322 329 330 327 326 325 325 328 327 324 325 324 322 322 321 319 317 318 322 321 319 317 316 317 318
216 214 207 206 210 211 208 208 209 213 214 212 224 235 230 223 217 221 230 235 234 253 277 267 248 249 257 261 261 266 276 287 295 304 313 317 324 327 317 309 308 313 314 313 312 312 312 312 312 313 314 314 315 313 311 310 313 316 317 316 320 323 324 325 325 325 326 328 325 323 324 322 320 320 318 317 317 321 323 322 319 318 319 320 321
215 216 213 209 212 212 212 217 221 222 221 224 234 233 223 224 222 224 231 234 237 241 261 275 264 256 260 266 270 279 292 305 305 300 307 317 329 334 316 300 305 306 306 308 311 315 317 318 317 319 320 319 317 314 314 316 316 316 314 313 314 318 320 322 323 325 327 327 323 321 322 320 318 317 316 316 320 324 325 323 322 321 322 323 324
216 219 219 215 215 212 212 221 226 228 226 229 237 232 215 219 224 227 232 233 236 243 258 278 278 271 277 292 306 319 325 327 318 296 322 337 333 325 311 298 302 302 304 307 314 320 322 323 323 322 322 322 319 317 316 313 315 318 316 313 314 317 319 321 323 326 327 327 323 320 320 317 315 316 317 320 324 327 326 324 324 324 325 325 325
223 222 220 218 220 219 221 231 234 230 229 232 237 233 217 217 223 228 231 230 231 242 263 277 277 271 273 282 296 312 320 327 321 306 332 338 327 327 317 310 310 308 305 308 318 323 325 325 324 323 322 323 321 318 315 311 314 319 317 315 316 318 320 322 325 327 328 327 323 320 319 317 316 318 320 323 326 327 326 325 325 325 325 326 326
227 225 221 222 225 227 231 240 244 236 231 233 237 235 229 225 226 229 229 230 232 241 263 269 267 266 266 275 290 307 317 322 310 304 326 327 330 331 318 315 313 310 307 310 318 321 325 328 327 326 323 322 322 320 317 314 315 318 318 319 319 320 321 323 327 329 327 325 322 320 318 316 317 320 322 325 326 326 327 327 325 326 327 327 326
227 228 226 227 230 231 235 243 247 243 236 235 239 237 236 236 233 233 232 234 237 248 266 269 265 269 279 289 298 311 318 309 280 306 333 334 339 328 313 309 306 309 307 309 316 318 323 327 328 326 324 322 323 320 315 314 316 320 323 324 322 322 322 324 328 328 324 323 321 318 317 315 316 319 322 324 324 326 327 327 326 326 326 326 325
225 228 229 230 232 233 236 242 245 245 241 239 240 239 238 239 238 238 238 239 244 257 272 280 285 288 298 304 306 315 314 290 264 311 335 336 337 328 316 306 302 303 300 306 312 318 323 326 326 326 325 325 325 318 311 314 318 322 325 325 324 323 323 325 327 325 323 322 320 318 317 315 316 319 322 322 322 325 327 326 326 325 325 326 327
225 228 229 230 231 232 235 239 243 244 242 240 240 240 240 240 241 242 244 243 248 258 269 281 290 296 304 305 310 318 299 274 260 299 328 328 319 316 311 306 309 307 302 306 313 320 324 325 326 326 329 330 325 315 314 317 318 321 324 325 324 322 324 326 326 324 323 321 319 318 318 318 319 321 322 321 323 326 327 326 326 326 328 331 334
235 234 233 232 232 233 235 238 242 245 244 242 241 242 243 243 243 246 248 247 249 257 264 274 282 289 300 305 313 320 302 277 263 280 301 316 312 304 302 306 318 322 315 311 315 321 323 325 325 329 333 329 320 315 317 318 318 321 323 324 322 323 325 326 325 323 323 321 320 321 322 322 322 322 321 322 325 327 327 327 327 329 333 338 346
250 247 243 239 238 237 238 240 243 245 246 245 243 242 243 244 244 248 250 251 261 276 276 271 272 274 285 294 298 304 298 286 274 281 287 297 312 312 302 301 315 316 308 308 314 320 322 325 326 332 333 322 317 318 318 318 319 322 323 323 323 324 327 327 325 325 324 323 323 325 325 323 323 322 322 325 327 327 327 328 330 335 341 351 1
250 251 252 248 245 244 246 248 248 247 245 243 243 243 242 242 244 249 252 254 265 282 279 263 260 263 275 281 282 283 274 272 278 283 289 294 306 317 312 304 304 296 296 304 312 320 323 325 329 335 331 323 324 324 321 319 319 321 322 324 325 326 328 327 326 327 326 326 328 329 327 324 324 323 325 328 328 327 328 331 335 343 356 10 17
254 250 251 250 248 249 251 253 254 251 246 243 243 244 244 244 245 250 254 255 262 269 263 257 255 260 277 278 269 263 256 252 262 271 288 300 300 304 310 308 297 293 301 308 313 319 323 328 333 333 328 327 329 327 323 319 318 320 323 326 328 329 329 328 328 330 330 329 331 329 326 324 324 325 328 329 328 328 331 337 346 2 20 29 35
269 251 248 248 249 248 250 251 253 253 248 245 243 243 244 244 246 249 252 254 256 251 249 258 253 253 275 282 262 244 249 253 257 267 282 297 296 290 295 304 294 294 307 314 314 316 322 330 334 331 326 327 329 326 321 317 318 322 326 329 330 331 330 330 332 334 332 330 331 329 326 324 324 327 329 330 330 334 340 351 9 30 43 50 54
322 265 244 241 242 242 246 248 248 249 247 245 242 242 241 240 240 241 245 244 238 233 240 249 247 251 269 280 262 245 253 256 259 273 277 288 297 288 287 297 294 292 304 314 313 314 323 331 335 332 323 322 325 324 319 318 322 326 330 331 331 332 331 332 335 334 331 331 331 330 327 324 326 330 333 334 339 347 360 19 41 54 62 66 66
16 347 251 233 234 236 242 248 250 249 246 241 240 239 234 234 233 230 235 236 237 240 240 235 237 247 254 261 257 248 253 253 257 275 286 294 294 286 285 297 300 295 303 311 310 314 326 332 334 328 319 320 324 322 319 322 326 329 331 331 331 332 331 334 335 332 332 333 332 332 331 331 335 340 344 349 2 16 33 50 62 69 72 72 70
37 26 343 259 243 243 244 252 255 254 248 238 231 227 226 231 229 229 232 235 245 243 234 226 226 231 240 253 253 247 251 252 255 270 286 292 286 283 284 294 303 302 306 308 308 318 327 330 330 326 323 325 324 322 322 326 329 330 331 331 332 332 332 334 335 335 336 337 337 338 341 347 354 0 9 23 36 46 56 66 73 76 75 71 70
37 28 7 315 260 248 247 251 253 252 246 233 225 222 227 232 223 225 235 239 243 238 232 226 221 226 235 243 246 246 248 256 262 267 279 287 282 277 276 288 302 301 303 305 312 324 328 328 329 328 328 327 325 325 327 329 329 330 330 331 333 335 338 341 344 345 346 347 349 355 4 14 22 31 43 51 56 63 68 73 76 74 72 70 69
31 24 13 344 292 257 251 252 248 244 236 226 225 227 230 228 219 224 236 243 247 243 239 232 226 230 234 238 249 255 244 253 266 265 272 277 271 271 275 289 296 291 298 308 320 328 328 330 330 331 331 328 327 329 331 330 329 331 332 335 340 343 349 354 359 2 5 10 15 25 33 39 46 53 59 62 66 70 73 75 73 72 71 71 70
28 22 19 6 355 334 284 258 251 239 226 221 223 228 229 226 222 220 227 234 236 241 242 239 240 242 243 248 259 263 248 251 258 259 264 264 264 275 283 290 289 290 305 316 327 330 331 334 334 334 331 329 330 332 331 330 331 333 336 345 354 356 3 12 18 23 29 35 39 44 49 52 56 60 64 69 72 73 73 72 71 73 73 72 71
24 20 19 13 6 358 347 309 275 246 221 218 220 224 227 229 225 219 224 226 224 231 237 239 251 260 257 252 254 262 260 256 252 250 253 259 268 280 287 286 287 304 319 324 330 333 337 339 338 335 332 331 332 332 331 332 335 340 348 2 12 16 25 33 36 40 44 47 50 53 55 58 61 65 70 73 74 73 70 70 71 74 74 73 71
20 21 22 16 10 1 356 345 301 265 233 219 217 218 225 229 225 221 224 227 227 224 227 242 265 272 265 252 257 270 268 256 246 248 252 259 267 273 280 280 291 320 325 325 332 337 342 342 339 337 335 335 333 333 335 341 347 356 9 22 31 36 42 45 46 48 50 53 55 58 60 62 65 69 73 75 74 71 68 69 70 72 73 73 73
16 18 20 17 12 4 359 353 328 297 260 229 218 217 226 234 228 225 228 232 237 219 215 243 256 259 251 246 257 264 262 250 241 250 252 249 250 261 272 273 298 324 324 325 335 341 344 342 340 340 339 337 337 341 349 359 9 22 31 41 47 49 50 52 52 52 53 56 59 62 63 65 68 71 74 73 71 68 65 65 66 68 70 71 73
16 15 16 15 12 7 4 359 349 334 308 231 204 206 220 236 234 232 238 242 240 225 212 221 225 229 226 233 246 258 275 267 244 234 233 235 242 261 268 274 309 324 321 328 337 342 343 341 341 342 342 343 351 5 18 28 35 41 44 50 55 56 57 57 57 57 57 58 60 64 66 67 70 72 73 71 69 66 63 62 62 64 65 66 69
18 16 14 12 11 8 4 0 359 359 4 110 177 189 203 228 232 232 239 243 241 235 228 217 217 229 245 247 251 263 281 270 235 214 208 213 220 240 263 288 317 319 317 328 336 340 339 339 342 347 354 9 30 43 50 53 54 57 57 59 62 63 62 61 62 63 63 63 64 66 68 70 71 72 72 70 68 65 63 62 61 61 59 60 62
21 18 15 12 10 6 3 358 354 357 23 97 141 158 188 224 230 227 234 237 235 235 236 229 225 236 253 263 262 262 266 254 226 207 200 202 222 247 269 299 313 310 313 326 333 336 336 339 349 9 37 55 63 65 66 66 67 69 68 68 72 70 68 70 70 70 69 68 68 69 70 71 71 72 71 69 68 66 66 64 62 59 54 53 56
21 20 17 15 12 8 6 1 354 354 16 75 127 151 182 223 232 230 236 235 230 230 236 239 236 238 245 252 252 245 248 244 224 210 229 248 264 272 281 295 302 302 313 325 331 334 338 351 23 58 71 74 74 73 74 73 74 75 72 72 76 74 74 75 73 72 72 72 73 73 72 72 71 71 70 68 66 65 65 65 63 57 50 48 51
22 21 19 16 14 11 10 8 6 2 9 51 97 144 178 209 231 234 241 237 229 227 232 239 236 229 229 235 237 240 245 228 216 245 282 278 279 281 283 288 295 301 313 324 329 336 356 40 71 80 80 79 78 77 78 76 75 75 72 73 75 73 75 75 73 74 74 73 74 74 75 75 74 74 74 72 69 65 64 63 62 57 48 43 47
23 22 21 19 16 14 13 16 18 23 34 62 81 95 173 201 217 221 227 229 223 218 222 231 226 222 226 228 235 246 240 209 230 282 291 280 281 278 275 280 289 297 312 322 331 359 61 82 85 86 84 82 81 79 77 74 73 73 71 71 71 72 73 73 73 74 74 74 73 74 77 78 78 78 78 79 77 73 70 67 65 59 50 41 43
23 22 22 21 19 17 17 19 25 38 69 99 97 84 228 224 211 209 211 205 207 210 215 226 227 228 233 230 237 246 239 243 281 299 290 281 276 254 247 255 272 291 310 324 4 79 95 92 88 87 86 82 80 78 75 73 71 71 71 70 71 73 72 70 71 72 73 74 73 73 77 77 78 78 78 80 80 78 76 73 70 64 54 42 39
24 23 23 22 21 20 19 22 27 39 66 107 120 132 215 235 175 208 229 201 207 216 216 224 226 231 237 233 234 237 251 280 297 299 289 276 248 222 219 228 266 296 315 26 94 103 103 96 89 86 84 80 77 75 75 72 70 71 72 71 72 73 72 71 72 72 73 74 74 74 75 74 73 74 75 76 76 76 74 72 71 67 61 49 38
25 24 23 23 22 22 21 22 26 35 51 85 123 144 174 162 129 156 231 213 226 245 239 231 223 226 234 229 230 237 259 280 286 273 256 225 213 212 209 216 269 315 99 107 107 107 104 97 91 85 81 79 76 74 73 73 73 73 72 72 71 71 71 73 74 74 75 77 78 76 75 73 72 72 72 73 73 73 73 72 72 71 68 60 46
25 26 24 23 23 23 23 22 24 31 42 60 89 120 142 144 142 156 180 192 219 243 246 237 223 217 218 217 225 237 249 254 230 209 191 174 170 171 169 153 126 117 115 112 108 105 101 95 91 85 81 78 75 73 72 73 73 72 71 71 70 70 72 75 76 76 77 78 80 77 74 74 74 72 71 72 73 73 73 73 73 72 71 67 59
26 26 26 24 24 24 25 24 24 28 35 46 62 88 116 130 136 145 158 172 190 210 214 209 204 196 185 185 193 198 194 182 173 167 161 148 132 131 133 128 124 119 116 113 108 103 98 93 89 85 82 78 75 73 72 72 72 70 69 70 71 72 73 76 77 77 77 78 78 76 74 74 73 72 72 71 71 72 73 72 72 72 71 70 67
26 27 27 26 25 26 26 25 25 27 32 39 49 65 91 111 119 127 141 152 155 165 180 189 191 184 175 173 172 175 176 172 169 156 142 135 125 123 125 125 125 122 117 112 106 101 95 91 87 84 81 78 75 73 72 72 72 71 71 71 72 74 75 77 78 77 78 77 73 71 70 69 69 71 73 72 70 70 71 70 70 71 71 71 69
26 28 28 27 26 27 27 26 25 27 30 35 42 53 71 92 106 113 121 130 133 135 145 161 172 175 175 175 172 175 174 168 162 146 132 131 126 123 125 125 124 122 117 111 105 99 95 90 86 83 80 77 75 74 74 73 74 74 74 74 74 76 78 79 79 79 79 76 71 69 67 68 71 74 76 74 71 70 70 69 69 69 69 69 69
26 28 28 28 27 27 29 28 25 26 30 33 37 45 59 77 95 106 110 114 119 122 126 135 142 148 153 152 153 154 151 147 145 138 134 133 128 127 128 127 124 121 116 109 104 99 96 91 87 84 80 77 76 76 77 76 76 75 75 76 76 77 78 79 79 79 76 73 71 68 65 69 76 76 74 74 73 71 70 68 67 66 66 67 67
26 28 29 29 29 28 29 30 27 25 27 31 35 40 50 65 83 99 107 110 113 117 122 127 128 131 133 135 136 138 139 138 137 136 135 133 130 129 130 128 125 121 115 109 104 100 94 89 86 83 81 79 78 77 77 78 77 77 77 76 75 76 76 76 76 74 72 70 68 65 66 73 77 74 73 72 71 69 67 65 63 63 64 63 63
24 27 28 29 30 29 29 31 29 26 26 29 33 37 43 53 70 89 102 108 112 116 120 125 128 129 131 132 135 136 138 138 137 138 134 131 131 132 130 127 125 120 114 109 105 99 93 89 86 83 80 79 78 77 76 77 77 78 77 76 75 74 73 72 72 72 70 66 63 65 71 78 79 75 72 69 67 65 65 65 65 63 62 60 60
23 26 27 27 28 29 29 31 31 28 26 27 31 35 39 46 58 76 94 105 112 116 120 122 124 128 131 133 136 137 138 139 140 140 138 134 133 133 131 128 125 120 114 109 105 100 95 91 87 83 80 78 78 76 75 74 74 75 76 76 74 71 70 70 69 67 66 66 70 74 78 80 77 72 69 67 66 65 66 67 66 63 60 59 61
17 22 24 25 26 28 29 30 31 30 27 26 30 33 36 43 51 64 84 99 109 115 120 123 124 126 129 131 134 136 136 138 139 139 139 137 134 134 131 127 124 118 113 108 104 101 96 92 89 85 82 80 78 77 75 73 71 71 73 74 73 70 71 71 68 66 67 71 77 79 80 78 72 67 67 67 67 65 64 64 63 62 61 63 64
5 15 19 22 23 26 28 30 31 32 30 27 28 32 35 40 48 56 71 90 105 114 120 124 126 128 129 130 131 134 135 137 138 138 138 138 136 134 130 126 122 116 112 108 104 101 97 93 91 88 84 82 80 78 75 73 71 70 71 73 74 72 71 71 71 70 70 73 76 76 78 77 73 70 68 66 66 64 62 61 61 63 64 65 65
337 3 9 14 20 24 27 30 32 32 32 30 27 31 35 39 45 54 64 80 97 111 118 123 127 128 128 130 132 134 136 137 138 138 139 138 136 133 129 125 121 116 113 110 106 102 98 95 92 89 86 83 81 78 74 72 70 68 69 72 74 73 71 73 74 73 71 72 72 73 75 75 74 73 69 66 65 61 60 60 59 62 66 66 66
291 336 352 0 13 22 26 29 34 34 33 32 30 30 34 38 43 50 60 73 90 104 114 120 123 127 128 130 133 135 137 138 138 139 139 138 135 132 129 126 122 118 115 111 107 103 100 97 93 90 87 83 80 76 73 71 69 67 67 70 73 74 74 76 75 73 74 74 73 74 76 76 76 75 72 68 62 56 57 61 60 62 67 69 70
261 287 316 342 0 16 26 29 34 37 35 34 32 31 33 37 43 48 56 67 82 98 110 118 122 127 130 132 135 136 137 138 139 140 140 138 135 132 130 127 123 120 117 112 108 105 101 98 94 90 86 82 79 75 71 68 66 65 65 67 71 74 74 74 74 75 76 76 77 77 78 77 76 75 69 64 59 55 60 68 68 66 68 71 73
247 265 286 314 339 3 23 28 34 39 39 36 34 33 34 36 41 48 55 64 76 92 106 116 122 127 131 134 136 137 138 139 140 141 140 137 136 133 131 128 125 122 118 114 110 106 103 99 95 90 85 81 78 74 71 67 64 63 63 64 67 70 71 71 74 77 77 75 75 76 77 77 75 73 68 64 64 64 64 70 73 71 70 70 71
Height
10966 10966 10966 10968 10969 10970 10972 10973 10974 10974 10975 10976 10977 10978 10979 10979 10980 10981 10981 10982 10981 10981 10982 10982 10982 10982 10983 10983 10983 10983 10982 10981 10981 10981 10981 10980 10977 10974 10973 10974 10973 10972 10971 10970 10969 10969 10968 10968 10968 10968 10968 10968 10967 10966 10964 10962 10960 10959 10958 10956 10955 10953 10952 10951 10949 10947 10945 10943 10941 10939 10938 10936 10935 10933 10931 10929 10928 10927 10926 10924 10923 10922 10921 10919 10918
10967 10967 10968 10969 10970 10972 10972 10973 10974 10974 10975 10976 10977 10977 10978 10979 10979 10980 10981 10982 10982 10981 10982 10982 10982 10982 10982 10982 10982 10981 10980 10980 10979 10979 10980 10978 10976 10974 10974 10974 10973 10972 10971 10970 10969 10968 10967 10967 10967 10967 10967 10967 10966 10965 10963 10961 10959 10958 10957 10955 10954 10952 10951 10949 10947 10945 10943 10941 10939 10937 10936 10935 10933 10931 10929 10927 10926 10925 10924 10923 10922 10921 10919 10918 10917
10967 10968 10968 10969 10971 10972 10972 10972 10973 10974 10975 10976 10976 10977 10977 10978 10979 10980 10981 10981 10981 10981 10982 10981 10981 10981 10981 10981 10981 10980 10980 10979 10978 10978 10978 10976 10973 10974 10974 10973 10972 10971 10970 10969 10968 10967 10966 10966 10966 10966 10966 10965 10965 10964 10963 10961 10958 10958 10957 10955 10953 10951 10950 10948 10946 10944 10942 10940 10938 10937 10935 10933 10931 10929 10927 10926 10925 10924 10923 10922 10921 10919 10918 10917 10915
10967 10968 10969 10970 10971 10971 10971 10972 10973 10974 10974 10975 10976 10976 10977 10978 10979 10979 10980 10980 10981 10981 10981 10981 10981 10981 10981 10981 10980 10979 10979 10977 10976 10976 10975 10973 10972 10972 10972 10971 10971 10970 10969 10968 10967 10966 10966 10966 10965 10965 10965 10964 10964 10963 10962 10961 10960 10958 10957 10955 10953 10951 10950 10948 10946 10944 10942 10940 10938 10936 10934 10932 10930 10928 10926 10924 10924 10923 10922 10921 10920 10918 10917 10915 10913
10967 10968 10969 10970 10971 10971 10971 10972 10972 10973 10974 10975 10975 10976 10976 10977 10978 10979 10979 10980 10980 10980 10981 10981 10981 10981 10981 10981 10979 10978 10977 10976 10975 10974 10973 10972 10971 10970 10970 10970 10970 10969 10968 10967 10967 10966 10966 10965 10965 10964 10964 10963 10963 10962 10962 10961 10960 10959 10957 10956 10953 10951 10950 10948 10946 10943 10941 10940 10938 10935 10933 10931 10929 10926 10925 10923 10922 10922 10921 10920 10918 10917 10915 10914 10912
10967 10968 10969 10970 10970 10971 10971 10971 10971 10972 10973 10974 10975 10975 10976 10977 10978 10978 10979 10980 10980 10980 10980 10980 10980 10981 10981 10980 10979 10977 10976 10974 10974 10972 10971 10970 10970 10969 10969 10969 10968 10967 10967 10966 10966 10966 10965 10965 10965 10964 10963 10963 10962 10961 10961 10960 10959 10958 10957 10955 10953 10951 10949 10947 10945 10942 10940 10939 10937 10934 10932 10930 10928 10926 10924 10922 10921 10921 10920 10918 10917 10915 10914 10912 10911
10967 10968 10969 10969 10970 10971 10971 10971 10971 10972 10972 10973 10974 10974 10975 10976 10977 10978 10978 10979 10980 10980 10979 10980 10980 10980 10979 10978 10977 10975 10974 10972 10972 10971 10969 10969 10969 10968 10968 10968 10967 10966 10966 10966 10966 10965 10965 10965 10964 10964 10963 10962 10961 10961 10960 10959 10959 10958 10956 10955 10952 10950 10948 10946 10944 10942 10940 10938 10936 10934 10932 10930 10927 10925 10923 10922 10921 10920 10918 10917 10915 10914 10913 10911 10910
10967 10968 10969 10969 10970 10970 10970 10971 10971 10971 10972 10972 10973 10973 10974 10975 10976 10977 10977 10978 10979 10979 10979 10979 10979 10979 10978 10976 10975 10973 10972 10971 10970 10970 10970 10969 10969 10969 10969 10968 10968 10966 10966 10965 10965 10964 10964 10964 10964 10963 10962 10961 10961 10960 10959 10958 10957 10956 10955 10953 10951 10949 10947 10945 10943 10941 10939 10937 10935 10932 10931 10929 10926 10924 10923 10921 10920 10919 10917 10916 10914 10913 10912 10911 10909
10966 10967 10968 10969 10969 10969 10969 10969 10970 10970 10971 10971 10972 10972 10973 10974 10975 10976 10976 10977 10978 10979 10979 10978 10978 10978 10976 10975 10973 10972 10972 10972 10971 10971 10971 10970 10970 10970 10969 10968 10968 10967 10966 10965 10964 10963 10963 10963 10963 10963 10962 10961 10960 10959 10958 10957 10956 10955 10953 10952 10950 10948 10946 10944 10942 10939 10937 10935 10933 10931 10930 10928 10926 10924 10922 10920 10919 10918 10916 10915 10914 10912 10911 10910 10908
10965 10966 10967 10967 10968 10968 10968 10967 10968 10969 10969 10970 10971 10972 10972 10973 10974 10975 10976 10977 10978 10978 10978 10978 10977 10976 10975 10974 10973 10972 10971 10972 10972 10972 10971 10970 10970 10969 10968 10967 10967 10966 10965 10964 10963 10963 10963 10963 10963 10962 10961 10960 10959 10958 10957 10956 10954 10953 10952 10951 10949 10947 10945 10943 10940 10938 10936 10934 10932 10930 10929 10926 10924 10923 10921 10920 10918 10917 10916 10914 10913 10911 10910 10909 10907
10964 10965 10966 10966 10966 10966 10966 10966 10966 10967 10968 10969 10970 10971 10972 10972 10973 10974 10975 10976 10977 10978 10978 10978 10977 10975 10974 10973 10972 10972 10972 10972 10972 10971 10970 10968 10968 10969 10969 10968 10967 10967 10966 10965 10964 10963 10963 10962 10962 10961 10961 10959 10958 10957 10956 10955 10953 10952 10951 10949 10948 10946 10944 10942 10939 10937 10935 10933 10931 10929 10927 10925 10923 10921 10920 10919 10917 10916 10915 10913 10912 10910 10909 10907 10905
10963 10964 10965 10965 10965 10965 10965 10965 10965 10965 10966 10967 10968 10970 10970 10971 10971 10972 10974 10975 10976 10977 10977 10977 10975 10974 10972 10971 10971 10971 10972 10972 10971 10970 10969 10968 10968 10970 10970 10969 10968 10967 10966 10965 10964 10963 10962 10962 10961 10960 10959 10958 10957 10956 10955 10953 10952 10951 10949 10948 10946 10944 10942 10940 10938 10936 10934 10932 10930 10928 10926 10924 10922 10920 10919 10917 10916 10915 10914 10912 10911 10909 10908 10906 10904
10964 10964 10964 10964 10964 10964 10964 10964 10964 10964 10965 10966 10967 10968 10968 10969 10970 10971 10973 10974 10975 10975 10975 10974 10973 10972 10971 10970 10970 10970 10971 10970 10970 10969 10968 10969 10969 10969 10970 10969 10968 10967 10966 10965 10964 10963 10962 10961 10960 10959 10958 10957 10956 10955 10954 10953 10951 10949 10948 10946 10945 10943 10941 10938 10936 10935 10933 10931 10929 10927 10925 10923 10921 10919 10918 10916 10915 10914 10913 10911 10910 10908 10906 10904 10902
10964 10964 10964 10964 10963 10963 10963 10963 10963 10963 10963 10964 10965 10967 10967 10968 10969 10970 10971 10973 10974 10974 10973 10971 10970 10970 10969 10969 10969 10969 10970 10970 10969 10968 10968 10970 10970 10969 10969 10968 10968 10967 10966 10965 10965 10964 10962 10961 10960 10958 10957 10956 10955 10955 10953 10952 10950 10948 10947 10945 10943 10941 10939 10937 10935 10934 10932 10930 10928 10926 10924 10922 10920 10918 10917 10915 10914 10913 10911 10910 10908 10906 10904 10903 10901
10963 10963 10963 10963 10963 10963 10963 10963 10962 10962 10962 10963 10964 10965 10966 10967 10968 10969 10970 10972 10973 10974 10973 10971 10969 10968 10968 10968 10968 10968 10969 10969 10968 10968 10969 10970 10970 10969 10969 10968 10968 10967 10966 10966 10965 10964 10963 10961 10960 10958 10957 10956 10955 10954 10953 10951 10949 10948 10946 10944 10942 10940 10938 10936 10935 10933 10931 10930 10927 10925 10923 10921 10919 10917 10915 10914 10913 10912 10910 10908 10906 10904 10903 10901 10900
10962 10962 10962 10962 10962 10962 10962 10962 10961 10961 10961 10962 10963 10964 10966 10966 10967 10968 10969 10971 10972 10972 10973 10971 10969 10967 10967 10967 10967 10968 10969 10969 10968 10968 10969 10969 10969 10968 10968 10968 10967 10967 10966 10966 10965 10964 10963 10961 10960 10958 10957 10957 10956 10954 10952 10951 10949 10947 10945 10943 10941 10939 10937 10935 10934 10932 10930 10928 10926 10924 10922 10920 10918 10916 10914 10913 10912 10910 10909 10907 10905 10903 10902 10901 10900
10962 10961 10961 10961 10961 10961 10961 10961 10960 10960 10961 10961 10962 10964 10965 10966 10966 10967 10969 10970 10970 10971 10971 10970 10968 10968 10967 10967 10967 10969 10969 10968 10968 10968 10968 10968 10968 10967 10967 10967 10967 10966 10966 10965 10965 10964 10962 10961 10959 10958 10958 10957 10955 10954 10952 10950 10948 10946 10944 10942 10940 10938 10936 10935 10933 10931 10929 10927 10925 10923 10921 10919 10917 10915 10913 10912 10910 10909 10907 10906 10904 10903 10902 10901 10901
10961 10961 10961 10960 10960 10960 10960 10960 10959 10959 10960 10961 10962 10963 10964 10965 10966 10967 10968 10968 10969 10970 10970 10969 10968 10968 10967 10967 10967 10968 10968 10968 10967 10967 10968 10968 10967 10967 10967 10966 10966 10965 10965 10965 10964 10963 10962 10960 10959 10958 10957 10956 10955 10953 10952 10950 10948 10946 10944 10941 10939 10937 10935 10934 10932 10930 10928 10926 10924 10922 10920 10918 10916 10914 10912 10911 10909 10908 10906 10905 10904 10903 10902 10902 10901
10961 10961 10960 10960 10960 10960 10960 10959 10958 10958 10959 10960 10961 10962 10963 10964 10965 10966 10965 10965 10966 10968 10968 10967 10967 10967 10967 10967 10967 10967 10968 10967 10966 10966 10966 10967 10967 10967 10966 10966 10965 10964 10964 10964 10963 10962 10961 10959 10958 10957 10956 10955 10954 10952 10951 10949 10947 10945 10943 10940 10938 10937 10935 10933 10931 10929 10927 10925 10923 10921 10919 10916 10914 10913 10911 10910 10908 10907 10906 10905 10904 10904 10903 10903 10902
10960 10960 10959 10959 10959 10959 10959 10958 10958 10958 10958 10959 10959 10960 10961 10962 10963 10963 10963 10963 10965 10966 10966 10965 10966 10966 10966 10967 10967 10967 10967 10966 10965 10964 10965 10965 10966 10966 10966 10965 10965 10964 10963 10963 10962 10961 10960 10959 10957 10956 10955 10954 10953 10951 10950 10948 10946 10944 10942 10940 10938 10936 10934 10932 10930 10928 10926 10924 10921 10919 10917 10915 10913 10912 10910 10909 10908 10907 10906 10905 10905 10905 10905 10904 10904
10959 10959 10958 10958 10958 10958 10958 10958 10957 10957 10957 10958 10958 10959 10960 10960 10961 10961 10962 10964 10965 10964 10964 10965 10966 10965 10966 10967 10967 10967 10966 10965 10964 10963 10963 10964 10965 10966 10965 10965 10964 10964 10963 10963 10962 10961 10959 10958 10957 10956 10955 10953 10952 10950 10949 10947 10945 10943 10941 10939 10937 10935 10933 10931 10929 10927 10925 10922 10920 10918 10916 10914 10913 10911 10910 10909 10908 10907 10907 10907 10907 10907 10907 10906 10906
10959 10958 10958 10958 10958 10958 10958 10957 10956 10956 10956 10957 10958 10958 10959 10959 10960 10960 10962 10964 10964 10962 10963 10964 10965 10964 10965 10966 10966 10966 10966 10964 10963 10962 10963 10964 10965 10965 10965 10965 10964 10964 10963 10963 10961 10960 10959 10957 10956 10955 10954 10952 10951 10950 10948 10946 10944 10942 10940 10938 10936 10934 10932 10930 10928 10926 10924 10922 10920 10918 10916 10914 10912 10911 10910 10909 10909 10908 10908 10909 10909 10909 10908 10908 10907
10960 10959 10958 10958 10958 10957 10957 10956 10955 10955 10955 10956 10956 10957 10958 10958 10959 10959 10961 10963 10962 10961 10962 10963 10963 10963 10964 10965 10965 10966 10965 10964 10963 10963 10963 10964 10965 10965 10964 10964 10964 10964 10963 10962 10961 10960 10958 10957 10956 10954 10953 10952 10951 10949 10947 10945 10943 10941 10939 10937 10936 10934 10932 10930 10927 10925 10923 10921 10920 10918 10916 10914 10913 10912 10911 10910 10910 10910 10910 10911 10911 10911 10910 10910 10909
10961 10960 10959 10958 10957 10957 10957 10956 10955 10955 10955 10956 10955 10955 10956 10957 10957 10958 10959 10960 10960 10961 10961 10962 10962 10962 10963 10964 10965 10965 10965 10964 10965 10965 10965 10965 10965 10964 10964 10964 10964 10964 10963 10962 10961 10959 10958 10956 10955 10954 10953 10951 10950 10948 10946 10944 10942 10940 10938 10937 10935 10933 10931 10929 10927 10925 10924 10922 10920 10918 10916 10915 10914 10913 10912 10912 10912 10912 10913 10913 10913 10913 10913 10912 10912
10962 10961 10959 10958 10957 10957 10957 10956 10955 10955 10955 10955 10954 10954 10954 10954 10955 10956 10957 10958 10959 10959 10960 10961 10961 10961 10961 10963 10964 10964 10965 10965 10966 10967 10965 10965 10965 10964 10964 10964 10964 10963 10963 10961 10960 10959 10957 10956 10955 10954 10952 10951 10949 10947 10945 10943 10941 10939 10938 10936 10935 10933 10931 10929 10927 10926 10924 10922 10921 10919 10918 10917 10916 10915 10914 10914 10914 10914 10915 10915 10916 10916 10915 10914 10914
10964 10962 10960 10959 10957 10957 10956 10956 10955 10955 10954 10955 10954 10953 10952 10951 10953 10955 10956 10957 10957 10958 10958 10960 10960 10959 10959 10961 10962 10963 10963 10964 10966 10966 10965 10964 10964 10964 10964 10964 10964 10963 10962 10961 10960 10959 10958 10956 10955 10953 10952 10950 10948 10947 10945 10943 10941 10939 10938 10936 10935 10934 10932 10930 10928 10927 10925 10924 10922 10921 10920 10919 10918 10917 10916 10916 10917 10917 10917 10918 10918 10918 10917 10917 10916
10965 10963 10961 10959 10958 10957 10956 10956 10955 10954 10954 10954 10954 10953 10951 10950 10952 10953 10954 10955 10955 10956 10957 10958 10958 10957 10957 10958 10961 10962 10962 10963 10963 10964 10963 10963 10964 10964 10964 10964 10963 10962 10962 10961 10960 10959 10958 10956 10955 10953 10952 10950 10948 10946 10944 10942 10941 10939 10938 10937 10936 10934 10932 10931 10930 10928 10926 10925 10924 10923 10922 10921 10920 10920 10919 10919 10919 10919 10920 10920 10920 10920 10919 10919 10918
10965 10964 10962 10960 10958 10957 10956 10956 10955 10954 10954 10954 10954 10953 10951 10949 10949 10951 10953 10954 10954 10955 10956 10956 10957 10957 10956 10957 10959 10960 10961 10962 10962 10962 10962 10962 10963 10963 10964 10963 10963 10962 10962 10961 10960 10959 10958 10956 10955 10953 10952 10950 10948 10946 10944 10943 10941 10940 10938 10937 10936 10935 10934 10933 10931 10930 10928 10927 10926 10925 10924 10924 10923 10922 10922 10922 10922 10922 10922 10922 10922 10922 10921 10921 10920
10967 10965 10963 10962 10960 10958 10957 10956 10955 10954 10953 10953 10954 10953 10951 10947 10946 10949 10952 10953 10953 10955 10956 10957 10957 10957 10957 10957 10958 10959 10959 10960 10960 10960 10961 10962 10962 10963 10964 10963 10963 10962 10962 10962 10961 10959 10958 10957 10955 10954 10952 10951 10949 10947 10945 10944 10942 10941 10939 10938 10937 10936 10935 10934 10933 10931 10930 10930 10929 10928 10927 10926 10926 10925 10925 10924 10924 10924 10923 10923 10923 10923 10922 10922 10922
10969 10967 10965 10963 10961 10959 10958 10957 10956 10955 10954 10954 10953 10952 10951 10946 10945 10949 10951 10951 10952 10954 10955 10956 10957 10958 10957 10957 10957 10958 10958 10959 10959 10959 10960 10961 10962 10963 10963 10963 10963 10963 10963 10962 10961 10960 10959 10958 10956 10955 10953 10952 10950 10949 10947 10945 10943 10942 10940 10939 10938 10937 10936 10935 10934 10933 10932 10932 10931 10930 10929 10929 10928 10928 10927 10926 10926 10925 10925 10924 10924 10923 10923 10923 10923
10970 10968 10966 10964 10962 10960 10959 10957 10956 10955 10954 10954 10953 10953 10951 10946 10946 10949 10950 10950 10952 10953 10954 10955 10957 10958 10958 10957 10957 10957 10957 10957 10957 10958 10959 10960 10961 10962 10962 10963 10963 10963 10963 10963 10962 10961 10960 10959 10958 10957 10955 10954 10952 10950 10948 10947 10945 10943 10942 10940 10939 10939 10938 10937 10936 10935 10934 10933 10933 10931 10930 10930 10930 10929 10928 10928 10927 10927 10926 10925 10924 10923 10923 10923 10923
10972 10970 10968 10965 10963 10961 10960 10959 10957 10956 10955 10954 10954 10953 10952 10949 10948 10949 10949 10950 10950 10952 10953 10955 10956 10957 10958 10957 10956 10956 10957 10957 10957 10957 10958 10959 10960 10961 10962 10963 10964 10964 10964 10964 10963 10963 10962 10961 10960 10959 10957 10956 10954 10952 10950 10950 10948 10946 10944 10942 10942 10941 10940 10939 10938 10937 10936 10936 10935 10933 10932 10932 10932 10931 10930 10930 10929 10929 10927 10926 10925 10924 10923 10923 10923
10974 10971 10969 10967 10965 10963 10961 10960 10958 10957 10955 10954 10953 10953 10953 10951 10949 10949 10949 10949 10950 10951 10953 10954 10955 10956 10957 10956 10955 10955 10956 10957 10957 10957 10958 10959 10960 10961 10962 10963 10964 10964 10965 10965 10965 10964 10963 10962 10961 10961 10960 10958 10956 10954 10953 10952 10951 10949 10947 10946 10945 10944 10943 10942 10941 10940 10939 10938 10937 10936 10935 10934 10934 10933 10932 10931 10931 10931 10930 10929 10927 10925 10924 10923 10924
10976 10973 10971 10969 10967 10964 10962 10960 10959 10958 10956 10954 10953 10953 10953 10952 10951 10950 10949 10949 10950 10951 10952 10953 10954 10955 10955 10955 10954 10955 10956 10957 10956 10956 10957 10958 10959 10960 10962 10963 10964 10965 10966 10967 10966 10966 10965 10964 10963 10962 10962 10960 10958 10957 10956 10955 10953 10952 10951 10950 10949 10948 10947 10946 10945 10944 10942 10941 10940 10939 10937 10937 10936 10935 10934 10933 10932 10932 10932 10931 10929 10927 10926 10925 10925
10978 10975 10973 10971 10969 10966 10964 10962 10960 10959 10958 10956 10953 10951 10950 10950 10951 10950 10950 10951 10951 10951 10951 10952 10952 10953 10953 10953 10954 10954 10953 10954 10955 10955 10956 10957 10959 10961 10962 10964 10965 10966 10968 10968 10968 10967 10967 10967 10966 10965 10964 10963 10961 10959 10958 10958 10956 10955 10954 10953 10952 10952 10951 10949 10948 10947 10946 10944 10943 10942 10940 10939 10939 10938 10937 10935 10934 10934 10934 10933 10931 10930 10928 10927 10925
10980 10978 10975 10973 10971 10968 10966 10964 10962 10960 10959 10958 10955 10953 10950 10949 10951 10950 10950 10951 10951 10951 10951 10951 10951 10951 10951 10952 10953 10953 10952 10952 10954 10955 10956 10958 10960 10961 10963 10965 10967 10968 10969 10969 10969 10969 10969 10969 10968 10967 10967 10965 10964 10962 10961 10960 10959 10958 10957 10956 10956 10955 10954 10952 10952 10950 10949 10948 10947 10945 10944 10943 10942 10941 10940 10938 10936 10936 10936 10935 10934 10932 10931 10929 10927
10982 10980 10977 10975 10973 10970 10968 10966 10964 10962 10961 10960 10958 10956 10954 10953 10954 10952 10950 10950 10949 10949 10950 10951 10951 10951 10951 10952 10953 10953 10953 10954 10955 10957 10958 10960 10961 10963 10965 10966 10968 10969 10970 10970 10970 10971 10971 10971 10971 10970 10969 10968 10966 10965 10964 10963 10962 10961 10960 10960 10959 10958 10956 10955 10954 10953 10952 10951 10950 10949 10948 10948 10947 10945 10943 10941 10939 10939 10939 10938 10936 10934 10933 10932 10930
10984 10982 10979 10977 10975 10972 10970 10968 10966 10964 10962 10961 10960 10958 10957 10956 10956 10955 10953 10951 10949 10949 10950 10951 10952 10952 10952 10952 10954 10955 10956 10956 10958 10959 10960 10962 10964 10965 10967 10968 10970 10971 10971 10972 10973 10973 10973 10973 10973 10973 10972 10970 10969 10968 10967 10966 10965 10964 10964 10963 10962 10961 10960 10959 10958 10956 10956 10955 10953 10953 10952 10952 10950 10948 10946 10944 10944 10943 10942 10941 10939 10937 10936 10936 10935
10986 10984 10982 10980 10978 10975 10973 10971 10968 10966 10964 10963 10961 10960 10959 10958 10957 10957 10956 10955 10953 10951 10952 10953 10953 10953 10953 10954 10956 10957 10958 10959 10960 10961 10963 10964 10966 10967 10968 10970 10972 10973 10973 10974 10975 10975 10975 10975 10975 10975 10974 10973 10972 10971 10970 10968 10967 10967 10966 10966 10965 10964 10963 10962 10961 10960 10959 10958 10957 10956 10956 10955 10953 10951 10950 10949 10949 10948 10946 10944 10942 10940 10939 10939 10939
10988 10986 10984 10982 10980 10978 10975 10973 10971 10969 10966 10964 10963 10961 10960 10959 10958 10958 10957 10956 10955 10954 10954 10954 10954 10954 10955 10956 10957 10959 10960 10961 10962 10964 10965 10967 10968 10969 10970 10972 10973 10974 10975 10976 10976 10977 10977 10977 10977 10976 10976 10975 10974 10973 10972 10971 10970 10969 10969 10968 10968 10967 10966 10965 10964 10963 10963 10962 10961 10960 10959 10958 10957 10955 10954 10954 10953 10951 10950 10948 10946 10944 10943 10943 10942
10990 10988 10986 10984 10983 10980 10978 10975 10973 10971 10969 10967 10965 10963 10961 10960 10959 10958 10958 10957 10956 10956 10955 10955 10956 10956 10957 10958 10959 10960 10962 10963 10964 10966 10967 10969 10970 10971 10973 10974 10975 10977 10977 10978 10978 10979 10979 10979 10979 10979 10978 10976 10976 10975 10974 10974 10973 10972 10972 10971 10970 10969 10969 10968 10967 10966 10966 10965 10964 10963 10962 10962 10961 10960 10959 10958 10957 10955 10954 10952 10950 10948 10947 10946 10945
10992 10990 10988 10986 10985 10983 10980 10978 10976 10974 10971 10969 10967 10965 10963 10962 10961 10960 10959 10958 10958 10958 10957 10957 10957 10958 10959 10960 10961 10962 10963 10965 10966 10968 10969 10971 10972 10973 10975 10976 10978 10979 10980 10980 10981 10981 10981 10981 10981 10981 10980 10979 10978 10977 10976 10976 10975 10975 10974 10973 10973 10972 10971 10971 10970 10969 10968 10967 10966 10965 10965 10966 10965 10963 10962 10961 10960 10958 10957 10955 10954 10953 10952 10951 10949
10993 10992 10990 10988 10986 10985 10982 10980 10978 10976 10974 10972 10969 10967 10966 10964 10963 10962 10961 10960 10960 10960 10960 10960 10960 10961 10961 10962 10963 10964 10966 10967 10968 10970 10971 10973 10974 10975 10977 10978 10980 10981 10982 10982 10983 10983 10983 10984 10983 10983 10982 10981 10981 10980 10979 10978 10977 10977 10977 10976 10976 10975 10974 10973 10973 10972 10970 10970 10969 10968 10968 10968 10967 10965 10964 10964 10963 10961 10959 10958 10958 10957 10956 10955 10952
10994 10993 10992 10990 10988 10987 10984 10982 10980 10979 10977 10974 10972 10970 10968 10967 10965 10964 10963 10962 10962 10962 10962 10962 10962 10963 10963 10964 10965 10966 10968 10969 10971 10972 10973 10975 10976 10977 10979 10981 10982 10983 10984 10984 10985 10986 10986 10986 10986 10985 10984 10983 10983 10983 10983 10981 10980 10980 10979 10979 10978 10977 10977 10976 10975 10974 10973 10972 10972 10971 10971 10970 10969 10969 10968 10967 10966 10964 10963 10963 10962 10960 10960 10958 10955
10994 10993 10993 10992 10990 10988 10986 10984 10983 10981 10979 10977 10975 10973 10971 10969 10968 10966 10965 10964 10964 10964 10964 10965 10965 10965 10965 10966 10967 10968 10970 10971 10973 10974 10975 10977 10978 10980 10981 10983 10984 10985 10986 10986 10987 10988 10988 10988 10988 10988 10987 10986 10985 10985 10985 10984 10984 10982 10982 10981 10981 10980 10979 10978 10977 10977 10976 10975 10974 10974 10974 10973 10972 10972 10971 10970 10969 10969 10968 10967 10963 10961 10962 10962 10960
10995 10994 10994 10993 10991 10990 10988 10986 10985 10983 10982 10980 10978 10976 10974 10972 10970 10969 10967 10966 10966 10966 10966 10967 10967 10967 10967 10968 10969 10970 10972 10973 10974 10976 10977 10979 10980 10982 10984 10985 10986 10987 10988 10988 10989 10990 10990 10991 10990 10990 10989 10989 10988 10988 10988 10987 10986 10985 10984 10983 10982 10982 10981 10980 10979 10978 10978 10978 10977 10976 10976 10975 10975 10975 10974 10973 10972 10973 10972 10968 10964 10964 10965 10966 10965
10996 10995 10995 10994 10993 10992 10990 10988 10987 10985 10984 10982 10980 10978 10976 10975 10973 10971 10970 10969 10968 10968 10968 10968 10969 10969 10970 10970 10971 10972 10973 10975 10976 10978 10979 10981 10983 10985 10987 10988 10989 10990 10990 10991 10992 10993 10993 10993 10993 10992 10992 10991 10991 10990 10990 10989 10988 10987 10986 10985 10984 10983 10983 10982 10981 10980 10980 10980 10980 10979 10978 10978 10978 10978 10977 10975 10974 10975 10974 10971 10969 10968 10968 10968 10968
10997 10996 10996 10995 10994 10993 10992 10990 10988 10987 10986 10984 10983 10981 10979 10977 10975 10974 10972 10971 10970 10970 10970 10970 10971 10971 10972 10973 10973 10974 10975 10977 10978 10980 10982 10984 10985 10987 10989 10990 10991 10992 10993 10994 10995 10995 10995 10995 10995 10995 10994 10994 10993 10992 10992 10991 10990 10989 10988 10987 10986 10985 10984 10983 10983 10982 10982 10982 10981 10981 10980 10981 10981 10981 10980 10979 10977 10977 10977 10976 10974 10972 10970 10971 10971
10998 10997 10997 10996 10995 10994 10993 10992 10990 10989 10987 10986 10985 10983 10982 10980 10978 10976 10975 10973 10972 10972 10972 10972 10973 10973 10974 10975 10976 10977 10978 10979 10981 10982 10984 10986 10988 10990 10991 10993 10994 10995 10996 10997 10997 10997 10997 10998 10997 10997 10997 10996 10995 10995 10994 10993 10992 10991 10990 10989 10988 10987 10986 10985 10984 10984 10983 10983 10983 10983 10983 10982 10983 10983 10983 10981 10980 10980 10980 10979 10978 10976 10974 10974 10975
10998 10998 10997 10997 10996 10995 10994 10993 10992 10991 10989 10988 10987 10986 10984 10982 10981 10979 10977 10976 10975 10974 10973 10974 10975 10975 10976 10977 10978 10980 10981 10982 10984 10986 10988 10990 10991 10993 10994 10995 10996 10997 10998 10999 10999 10999 10999 11000 11000 10999 10999 10998 10997 10997 10996 10995 10994 10993 10992 10991 10990 10989 10988 10987 10986 10986 10985 10985 10985 10986 10985 10984 10985 10985 10984 10983 10983 10983 10983 10981 10980 10979 10977 10977 10978
10998 10998 10998 10998 10997 10997 10996 10995 10994 10992 10991 10990 10989 10988 10986 10985 10983 10982 10980 10979 10977 10976 10976 10975 10976 10977 10978 10980 10981 10982 10984 10986 10988 10990 10992 10993 10995 10996 10997 10998 10999 11000 11001 11001 11001 11002 11002 11002 11002 11001 11001 11000 10999 10999 10998 10997 10996 10995 10994 10993 10992 10991 10990 10989 10989 10988 10988 10987 10987 10987 10987 10987 10987 10986 10985 10985 10986 10986 10985 10983 10983 10982 10980 10980 10981